Location: Bacea
(45.9500°N, 22.6667°E)
Time: 21:12:46
(UTC+00:00)

Cosmos 405 Rocket - Pass Details

Date: 16 October 2021
Orbit: 488 x 551 km, 81.3° (Epoch: 29 November)

Event Time Altitude Azimuth Distance (km) Brightness Sun altitude
Rises 16:55:30 0° 353° (N) 2,667 6.4 -13.6°
Reaches altitude 10° 16:57:41 10° 359° (N) 1,784 5.5 -14.0°
Maximum altitude 17:01:31 52° 76° (ENE) 673 2.9 -14.7°
Drops below altitude 10° 17:05:24 10° 154° (SSE) 1,803 5.2 -15.3°
Enters shadow 17:06:26 - 157° (SSE) 2,214 5.6 -15.5°
